Regional Weather Roundup
Issued by NWS Charleston, SC

Current Version | Previous Version | Text Only | Print | Product List | Glossary On
Versions: 1 2 3 4 5 6 7 8 9 10 11 12 13 14 15 16 17 18 19 20 21 22 23 24 25 26 27 28 29 30 31 32 33 34 35 36 37 38 39 40 41 42 43 44 45 46 47 48 49 50
000
ASUS42 KCHS 280225
RWRCHS

REGIONAL WEATHER ROUNDUP
NATIONAL WEATHER SERVICE CHARLESTON SC
900 PM EST THU NOV 27 2014

NOTE: "FAIR" INDICATES FEW OR NO CLOUDS BELOW 12,000 FEET WITH NO
SIGNIFICANT WEATHER AND/OR OBSTRUCTIONS TO VISIBILITY.

NOT ALL STATIONS ARE QUALITY CONTROLLED BY THE NATIONAL
WEATHER SERVICE. USE DATA WITH CAUTION...ESPECIALLY
DEWPOINT OBSERVATIONS.

SCZ027-030-031-034>040-042>050-280300-
...SOUTHEAST SOUTH CAROLINA...

CITY           SKY/WX    TMP DP  RH WIND       PRES   REMARKS
N CHARLESTON   CLEAR     44  33  65 W7        30.26R
WATERFRONT PRK   N/A     46 N/A N/A W5          N/A
MOUNT PLEASANT FAIR      43  36  75 CALM      30.25R
JOHNS ISLAND   CLEAR     41  39  93 CALM      30.27R
PINOPOLIS        N/A     48  36  61 W9        30.17R
MONCKS CORNER  FAIR      43  37  81 CALM      30.25R
SUMMERVILLE    FAIR      41  36  81 W6        30.27R
BEAUFORT MCAS  CLEAR     44  34  67 W7        30.28R
BEAUFORT ARPT  FAIR      45  36  70 W10       30.28R
HILTON HEAD IS CLEAR     46  34  61 W6        30.30R
WALTERBORO     CLEAR     45  32  61 W8        30.28R
ALLENDALE      FAIR      45  30  57 CALM      30.29R

...SOUTHERN MIDLANDS AND PEE DEE...

CITY           SKY/WX    TMP DP  RH WIND       PRES   REMARKS
GEORGETOWN     NOT AVBL
KINGSTREE      NOT AVBL
ORANGEBURG     CLEAR     45  30  55 NW8       30.27R
BARNWELL       FAIR      43  32  65 W7        30.30R
AIKEN          FAIR      39  30  70 W6        30.32R WCI  35
MANNING        NOT AVBL
COLUMBIA       CLEAR     45  27  49 NW7       30.27R
SUMTER         CLEAR     42  30  61 NW14      30.24R
FLORENCE       CLEAR     43  33  68 N8        30.24R
MYRTLE BEACH   CLEAR     39  36  87 W7        30.22R WCI  34
N MYRTLE BEACH CLEAR     38  36  92 W3        30.22R

$$

GAZ063-065-086>088-099>101-113>116-118-119-134>141-150-280300-
...SOUTHEAST GEORGIA...

CITY           SKY/WX    TMP DP  RH WIND       PRES   REMARKS
SAVANNAH ARPT  CLEAR     47  32  56 NW10      30.30R
HUNTER AAF     CLEAR     45  32  60 NW12      30.28R
FORT STEWART   CLEAR     43  32  65 NW8       30.29R
STATESBORO     NOT AVBL
SYLVANIA       CLEAR     45  34  65 NW8       30.32R
CLAXTON        FAIR      45  12  26 NW10      30.33R

...CSRA...CENTRAL AND FAR SOUTHEAST GEORGIA...

CITY           SKY/WX    TMP DP  RH WIND       PRES   REMARKS
THOMSON        CLEAR     41  33  72 W7        30.36R
AUGUSTA-BUSH   CLEAR     43  27  53 NW12      30.31R
AUGUSTA-DANIEL CLEAR     43  28  55 NW10G20   30.30R
SWAINSBORO     FAIR      43  34  70 NW8       30.33R
VIDALIA        CLEAR     43  32  65 NW6       30.34R
HAZLEHURST     FAIR      44  34  68 N8        30.33S
ALMA           CLEAR     44  31  60 NW7       30.32R
WAYCROSS       CLEAR     45  36  70 NW5       30.33R
JESUP          FAIR      46  36  66 NW6       30.32R
BAXLEY         FAIR      45  32  61 N6        30.33R
BRUNSWICK      CLEAR     43  34  70 W3        30.32R
SAINT SIMONS   CLEAR     46  32  58 W5        30.31R

$$

SCZ027-028-034-036>038-045-046-048>050-GAZ119-141-280300-
...LAKE AND SUPPLEMENTAL COASTAL OBSERVATIONS...

STATION/POSITION TIME  TEMP    WIND        PRES    WAVE   SWELL
                       AIR SEA DIR/SP/G            HT/PER HT/PER/DIR
                 (UTC) (F)     (DEG/KT/KT) (MB)    (FT/S) (FT/S/D)
UPR LAKE MARION  NOT AVBL
WINYAH BAY       0200   42     310/  3     1023.0S
LAKE MURRAY      0100   42     350/  3/  6 1024.7R
ACE BASIN NERRS  0200   42        CALM     1024.0S
FORT PULASKI     0200   49     300/ 14/ 17 1025.9R
SAPELO ISLAND    0200   45     330/  6     1026.0S

$$

ANZ835-935-AMZ111-154-330-350-352-354-370-450-454-472-280300-
...C-MAN AND BUOY OBSERVATIONS...

STATION/POSITION TIME  TEMP    WIND        PRES    WAVE   SWELL
                       AIR SEA DIR/SP/G            HT/PER HT/PER/DIR
                 (UTC) (F)     (DEG/KT/KT) (MB)    (FT/S) (FT/S/D)
FOLLY BEACH CMAN 0200   44     270/  4/  5 1024.9R
BUOY 41004       0200   56 72  320/ 19/ 25 1022.7R   6/ 5   2/10
BUOY 41008       0200   54 63  330/ 19/ 23 1025.0R   4/ 5   2/130/ 9
CAPERS NEARSHORE 0100   51     290/ 12/ 14   N/A
FRIPP NEARSHORE  NOT AVBL


STATION/POSITION TIME  TEMP    WIND        PRES    WAVE   SWELL
                       AIR SEA DIR/SP/G            HT/PER HT/PER/DIR
                 (UTC) (F)     (DEG/KT/KT) (MB)    (FT/S) (FT/S/D)
5E ST. MARYS GA  0200      62                N/A     3/ 4
FRYING PAN BUOY  0200   52 70  340/ 21/ 25 1022.6R   7/ 6   2/350/14
BUOY 41025       0200   48     310/ 21/ 27 1019.0R   7/ 5   3/110/ 9
CAPE LOOKOUT NC  0200   46     310/ 15/ 17 1021.4R
BUOY 41002       0109   63 73  310/ 21/ 27 1018.2R  13/ 8
BUOY 41010       0200   65 77  330/ 21/ 27 1021.8S   9/ 8   3/ 70/14
ST AUGUSTINE FL  0200   50     330/  9/ 11 1026.5R


$$


USA.gov is the U.S. government's official web portal to all federal, state and local government web resources and services.